Regional Weather Roundup
Issued by NWS Goodland, KS

Home | Current Version | Previous Version | Text Only | Print | Product List | Glossary Off
Versions: 1 2 3 4 5 6 7 8 9 10 11 12 13 14 15 16 17 18 19 20 21 22 23 24 25 26 27 28 29 30 31 32 33 34 35 36 37 38 39 40 41 42 43 44 45 46 47 48 49 50

000
ASUS43 KGLD 300759
RWRGLD

GOODLAND FORECAST AREA HOURLY WEATHER ROUNDUP
NATIONAL WEATHER SERVICE GOODLAND KS
200 AM MDT THU JUL 30 2015

...OFFICIAL OBSERVATIONS...

CITY           SKY/WX    TMP DP  RH WIND       PRES   REMARKS
GOODLAND KS    PTCLDY    61  57  87 S9        30.29S
HILL CITY KS   CLOUDY    67  62  84 E3        30.25S
IMPERIAL NEB   CLEAR     63  52  67 S8        30.26S
MCCOOK NEB     CLEAR     59  53  80 CALM      30.25S
AKRON CO       PTCLDY    60  53  77 S12       30.31R
BURLINGTON CO  PTCLDY    60  55  83 S9        30.31F
LIMON CO       MOCLDY    57  54  89 SE5       30.36S
$$

...UNOFFICIAL OBSERVATIONS...

CITY           SKY/WX    TMP DP  RH WIND       PRES   REMARKS
COLBY KS       CLEAR     64  57  77 SE6       30.27F
NORTON KS      CLEAR     57  54  88 CALM      30.24S
SHARON SPRINGS   N/A     62  59  91 SE5         N/A
KIT CARSON CO    N/A     63  58  84 MISG        N/A
$$



USA.gov is the U.S. government's official web portal to all federal, state and local government web resources and services.